Edwards AFB North Base, CA

1:57 AM PST on November 15, 2019 (GMT -0800)
Edwards AFB North Base

Weather History for K9L2 - September, 2019

Change the Weather History Date:

Wednesday, September 18, 2019

  Actual Average (WUND) Record (WUND)
Temperature  
Mean Temperature 68 °F -  
Max Temperature 89 °F - - (-1)
Min Temperature 47 °F - - (-1)
Cooling Degree Days 2    
Growing Degree Days 18 (Base 50)    
Moisture  
Dew Point 32 °F    
Average Humidity 29    
Maximum Humidity 65    
Minimum Humidity 9    
Precipitation  
Precipitation 0.00 in - - ()
Sea Level Pressure  
Sea Level Pressure 29.84 in    
Wind  
Wind Speed 8 mph ()    
Max Wind Speed 23 mph    
Max Gust Speed 26 mph    
Visibility 8.1 miles    
Events      
Averages and records for this station are not official NWS values.
T = Trace of Precipitation, MM = Missing Value Source: Averaged Metar Reports

Daily Weather History Graph

Daily Weather History Graph

Search for Another Location

Airport or City:

Astronomy

Sep. 18, 2019 Rise Set
Actual Time 6:36 AM PDT 6:54 PM PDT
Civil Twilight 6:11 AM PDT 7:19 PM PDT
Nautical Twilight 5:41 AM PDT 7:49 PM PDT
Astronomical Twilight 5:11 AM PDT 8:19 PM PDT
Moon 9:40 PM PDT (9/18) 10:35 AM PDT (9/18)
Length of Visible Light 13h 08m
Length of Day
12h 17m
Waning Gibbous, 82% of the Moon is Illuminated
Sep 18
Waning Gibbous
Sep 21
Last Quarter
Sep 28
New
Oct 5
First Quarter
Oct 13
Full

Hourly Weather History & Observations

Time (PDT) Temp. Dew Point Humidity Pressure Visibility Wind Dir Wind Speed Gust Speed Precip Events Conditions
1:58 AM 55.0 °F 37.2 °F 51% 29.88 in 10.0 mi South 4.6 mph - N/A   Clear
2:58 AM 54.0 °F 36.3 °F 51% 29.87 in 10.0 mi Calm Calm - N/A   Clear
3:58 AM 52.5 °F 36.5 °F 54% 29.87 in 10.0 mi Calm Calm - N/A   Clear
4:58 AM 49.5 °F 34.5 °F 56% 29.86 in 10.0 mi North 3.5 mph - N/A   Clear
5:58 AM 47.5 °F 36.3 °F 65% 29.88 in 10.0 mi North 4.6 mph - N/A   Clear
6:58 AM 48.0 °F 35.8 °F 63% 29.89 in 10.0 mi Calm Calm - N/A   Clear
7:58 AM 53.8 °F 36.1 °F 51% 29.90 in 10.0 mi Calm Calm - N/A   Clear
8:58 AM 69.8 °F 41.7 °F 36% 29.89 in 8.0 mi SW 11.5 mph - N/A   Clear
9:58 AM 74.7 °F 37.0 °F 26% 29.89 in 7.0 mi SSW 6.9 mph - N/A   Clear
10:58 AM 78.1 °F 33.8 °F 20% 29.88 in 7.0 mi SW 13.8 mph 20.7 mph N/A   Clear
11:58 AM 82.4 °F 28.0 °F 14% 29.86 in 7.0 mi SSW 12.7 mph - N/A   Clear
12:58 PM 85.1 °F 26.2 °F 12% 29.83 in 8.0 mi SW 10.4 mph - N/A   Clear
2:58 PM 88.7 °F 22.6 °F 9% 29.79 in 7.0 mi WSW 13.8 mph 20.7 mph N/A   Clear
3:03 PM 87.8 °F 23.0 °F 9% 29.79 in 6.0 mi WSW 12.7 mph 20.7 mph N/A   Haze
3:23 PM 87.8 °F 23.0 °F 9% 29.79 in 7.0 mi SW 13.8 mph - N/A   Clear
3:58 PM 88.0 °F 24.1 °F 10% 29.79 in 6.0 mi WSW 17.3 mph - N/A   Haze
4:43 PM 86.0 °F 28.4 °F 12% 29.79 in 6.0 mi West 18.4 mph - N/A   Haze
4:58 PM 85.5 °F 30.2 °F 14% 29.80 in 7.0 mi West 23.0 mph - N/A   Clear
5:13 PM 84.2 °F 30.2 °F 14% 29.79 in 6.0 mi West 19.6 mph 26.5 mph N/A   Haze
5:28 PM 84.2 °F 32.0 °F 15% 29.81 in 7.0 mi West 23.0 mph - N/A   Clear
5:58 PM 81.0 °F 28.9 °F 15% 29.81 in 7.0 mi West 21.9 mph - N/A   Clear
6:58 PM 76.5 °F 25.0 °F 15% 29.81 in 7.0 mi WSW 16.1 mph - N/A   Clear
7:58 PM 73.4 °F 31.1 °F 21% 29.83 in 8.0 mi WSW 13.8 mph - N/A   Clear
8:58 PM 70.5 °F 33.3 °F 25% 29.83 in 9.0 mi SSW 11.5 mph - N/A   Clear
9:58 PM 68.0 °F 36.1 °F 31% 29.82 in 10.0 mi SSW 11.5 mph - N/A   Clear
10:58 PM 66.7 °F 37.9 °F 35% 29.83 in 9.0 mi SW 9.2 mph - N/A   Clear
11:58 PM 65.3 °F 43.5 °F 45% 29.81 in 9.0 mi SW 8.1 mph - N/A   Clear